www.pogodaiklimat.ru

Погода и климат >> Архив погоды >> Финляндия >> Муонио Саммалтунтури


ПОГОДА в Муонио Саммалтунтури

  • Прогноз погоды в Муонио Саммалтунтури
  • Монитор погоды в Муонио Саммалтунтури

АРХИВ ПОГОДЫ в Муонио Саммалтунтури

Время (UTC), дата Ветер
(напр.,м/с)
 
Видим.   Явления Облачность Т
(С)
Тd
(С)
f
(%)
Тe
(С)
Тes
(С)
Комфортность P
(гПа)
Po
(гПа)
Тmin
(С)
Tmax
(С)
R
(мм)
R24
(мм)
S
(см)
11 17.01 В 5 3100 м слаб. снег н/о -14.3 -15.7 89 -23 -23 989.4 919.3
10 17.01 В 4 2900 м слаб. снег н/о -14.5 -15.9 89 -22 -22 989.5 919.4
12 17.01 СВ 4-6
{7}
2400 м слаб. снег н/о -14.5 -16.0 88 -22 -22 989.4 919.3
13 17.01 СВ 5 3400 м слаб. снег н/о -14.8 -16.3 88 -24 -24 989.1 918.8
14 17.01 В 7 2000 м слаб. снег н/о -14.3 -15.7 89 -24 -24 989.0 918.9
15 17.01 В 7-9
{9}
1800 м слаб. снег н/о -14.3 -15.7 89 -24 -24 989.3 919.1
17 17.01 В 6 4300 м слаб. снег н/о -13.6 -14.9 90 -23 -23 989.5 919.5
16 17.01 В 7 3800 м слаб. снег н/о -13.9 -15.2 90 -24 -24 989.4 919.4
18 17.01 В 6-7
{8}
2900 м слаб. снег н/о -13.8 -15.1 90 -23 -23 989.9 919.9 -15.8 -13.5
19 17.01 В 7 2800 м слаб. снег н/о -13.6 -14.9 90 -23 -23 990.0 920.0
20 17.01 В 6 5000 м слаб. снег н/о -13.6 -14.9 90 -23 -23 990.2 920.2
21 17.01 В 6-7
{7}
6000 м слаб. снег н/о -13.6 -15.0 89 -23 -23 990.9 920.8
23 17.01 В 4 12 км слаб. снег н/о -13.8 -15.1 90 -21 -21 991.6 921.5
22 17.01 В 6 7000 м слаб. снег н/о -13.7 -15.1 89 -23 -23 991.2 921.1
00 18.01 В 4-5
{6}
11 км слаб. снег н/о -13.9 -15.3 89 -21 -21 992.0 921.8
01 18.01 В 4 6000 м слаб. снег н/о -14.0 -15.4 89 -22 -22 992.4 922.2
02 18.01 В 4 10 км слаб. снег н/о -13.6 -14.9 90 -21 -21 992.6 922.4
03 18.01 В 3-4
{5}
9000 м слаб. ливневой снег н/о -13.4 -14.7 90 -20 -20 993.0 922.8
05 18.01 В 2 10 км н/о -13.1 -14.3 91 -18 -18 993.7 923.6
04 18.01 В 2 12 км в посл. час снег н/о -13.4 -14.7 90 -18 -18 993.4 923.2
06 18.01 ЮВ 2-2
{3}
10 км слаб. ливневой снег н/о -12.8 -14.1 90 -17 -17 994.0 923.9 -14.0 -12.7
07 18.01 ЮВ 2 8000 м слаб. снег н/о -12.7 -14.0 90 -17 -17 994.5 924.4
08 18.01 ЮВ 2 7000 м слаб. снег н/о -12.2 -13.4 91 -17 -17 994.9 924.9
09 18.01 Ю 3-4
{4}
11 км слаб. снег н/о -11.5 -12.6 92 -17 -17 995.2 925.4
11 18.01 ЮЗ 3 9000 м снежные кристаллы н/о -11.5 -12.6 92 -17 -17 995.8 926.0
10 18.01 Ю 3 8000 м слаб. снег н/о -11.2 -12.3 92 -17 -17 995.4 925.7
12 18.01 ЮЗ 3-3
{3}
12 км {ливн. осадки, снег} н/о -11.2 -12.3 92 -17 -17 996.1 926.3
13 18.01 ЮЗ 2 11 км дымка н/о -11.4 -12.4 92 -16 -16 996.4 926.6
14 18.01 ЮЗ 2 8000 м слаб. снег н/о -11.5 -12.6 92 -16 -16 996.8 926.9
15 18.01 ЮЗ 3-3
{3}
11 км слаб. ливневой снег н/о -11.2 -12.3 92 -17 -17 997.0 927.1
17 18.01 ЮЗ 4 200 м снежные кристаллы н/о -11.5 -12.6 92 -19 -19 997.4 927.4
16 18.01 ЮЗ 3 8000 м в посл. час снег н/о -11.1 -12.2 92 -17 -17 997.2 927.4
18 18.01 ЮЗ 4-4
{4}
100 м слаб. ливневой снег н/о -12.7 -13.9 91 -20 -20 997.9 927.6 -13.1 -10.9
19 18.01 ЮЗ 3 100 м снежные кристаллы н/о -13.3 -14.6 90 -20 -20 998.2 927.8
20 18.01 З 3 1300 м слаб. ливневой снег н/о -12.9 -14.1 91 -19 -19 998.3 927.9
21 18.01 З 3-4
{4}
900 м слаб. снег н/о -13.3 -14.6 90 -20 -20 998.7 928.2
23 18.01 ЮЗ 3 6000 м слаб. снег н/о -11.9 -13.0 92 -18 -18 998.4 928.3
22 18.01 ЮЗ 3 11 км снежные кристаллы н/о -12.0 -13.1 91 -18 -18 998.3 928.1
00 19.01 ЮЗ 3-4
{4}
4300 м слаб. снег н/о -12.1 -13.3 91 -18 -18 998.5 928.3
01 19.01 ЮЗ 3 5000 м снежные кристаллы н/о -12.6 -13.8 91 -19 -19 998.7 928.4
02 19.01 ЮЗ 3 7000 м снежные зёрна н/о -13.1 -14.3 91 -19 -19 998.6 928.2
03 19.01 ЮЗ 2-2
{3}
9000 м слаб. снег н/о -12.7 -13.9 91 -17 -17 998.5 928.1
05 19.01 Ю 4 6000 м снежные зёрна н/о -12.5 -13.6 91 -20 -20 998.4 928.2
04 19.01 Ю 4 9000 м снежные зёрна н/о -12.4 -13.6 91 -20 -20 998.4 928.1
06 19.01 Ю 4-4
{4}
5000 м снежные зёрна н/о -12.8 -14.1 90 -20 -20 998.6 928.2 -13.9 -11.8
07 19.01 Ю 3 9000 м слаб. снег н/о -12.7 -13.9 91 -19 -19 998.9 928.5
08 19.01 Ю 2 4500 м снежные зёрна н/о -12.7 -13.9 91 -17 -17 999.2 928.8
09 19.01 Ю 3-4
{4}
6000 м слаб. снег н/о -12.6 -13.8 91 -19 -19 999.6 929.2
11 19.01 ЮЗ 2 5000 м слаб. снег н/о -12.5 -13.7 91 -17 -17 1000.2 929.8
10 19.01 Ю 3 3700 м слаб. снег н/о -12.4 -13.6 91 -18 -18 999.9 929.5
12 19.01 Ю 1-2
{3}
14 км слаб. снег н/о -12.2 -13.4 91 -14 -14 1000.5 930.1
13 19.01 ЮВ 1 5000 м слаб. снег н/о -12.7 -13.9 91 -15 -15 1000.7 930.2
14 19.01 В 1 24 км снежные зёрна н/о -13.1 -14.4 90 -15 -15 1001.0 930.3
15 19.01 В 1-1
{2}
30 км {снег} н/о -13.3 -14.6 90 -16 -16 1001.5 930.8
17 19.01 С 3 23 км н/о -13.2 -14.5 90 -19 -19 1002.1 931.4
16 19.01 СВ 2 27 км н/о -13.6 -14.9 90 -18 -18 1002.0 931.2
18 19.01 СВ 2-3
{4}
24 км {снег} н/о -13.8 -15.0 91 -19 -19 1002.8 931.8 -14.0 -12.2
19 19.01 С 5 20 км н/о -14.2 -15.5 90 -23 -23 1003.3 932.2
20 19.01 С 5 15 км н/о -14.5 -15.9 89 -23 -23 1003.9 932.7
21 19.01 С 6-7
{7}
15 км слаб. снег н/о -14.3 -15.7 89 -24 -24 1004.2 933.0
23 19.01 С 7 1200 м слаб. снег н/о -15.6 -17.1 88 -26 -26 1005.6 934.0
22 19.01 С 6 12 км снежные зёрна н/о -14.9 -16.4 88 -24 -24 1004.9 933.5
00 20.01 СВ 7-9
{10}
4700 м слаб. снег н/о -15.8 -17.3 88 -26 -26 1006.1 934.4
01 20.01 СВ 8 3000 м слаб. снег н/о -15.3 -16.8 88 -26 -26 1006.2 934.6
02 20.01 СВ 8 4000 м слаб. снег н/о -14.8 -16.2 89 -26 -26 1006.4 935.0
03 20.01 СВ 9-11
{11}
4500 м снежные кристаллы н/о -13.6 -14.9 90 -25 -25 1006.7 935.5
05 20.01 С 9 35 км в посл. час снег н/о -13.1 -14.4 90 -24 -24 1007.5 936.4
04 20.01 С 10 8000 м слаб. ливневой снег н/о -13.3 -14.7 89 -25 -25 1007.0 935.9
06 20.01 С 9-11
{13}
35 км {ливн. осадки, снег} н/о -13.0 -14.4 89 -24 -24 1008.0 936.9 -15.8 -12.8
07 20.01 С 8 45 км н/о -12.3 -13.5 91 -22 -22 1008.2 937.3
08 20.01 С 8 45 км н/о -11.9 -13.0 92 -22 -22 1008.4 937.6
09 20.01 С 7-8
{10}
50 км н/о -11.4 -12.5 92 -21 -21 1008.9 938.1
11 20.01 С 5 45 км н/о -11.1 -12.1 92 -19 -19 1009.2 938.5
10 20.01 С 7 50 км н/о -11.5 -12.6 92 -21 -21 1009.0 938.2
12 20.01 С 5-6
{6}
45 км н/о -11.2 -12.3 92 -19 -19 1009.5 938.8
13 20.01 С 4 50 км н/о -11.5 -12.7 91 -19 -19 1009.8 939.0
14 20.01 С 5 50 км н/о -11.3 -13.0 87 -19 -19 1009.9 939.2
15 20.01 СЗ 2-3
{5}
50 км н/о -10.1 -12.8 81 -15 -15 1009.6 939.2
17 20.01 ЮЗ 3 50 км н/о -10.6 -12.2 88 -17 -17 1009.8 939.2
16 20.01 Ю 1 50 км н/о -10.7 -12.6 86 -13 -13 1009.9 939.2
18 20.01 З 4-4
{5}
50 км н/о -13.5 -16.5 78 -21 -21 1010.5 939.1 -13.5 -9.9
19 20.01 З 6 50 км н/о -12.1 -16.4 70 -21 -21 1010.1 939.1
20 20.01 З 7 50 км н/о -12.4 -17.7 65 -22 -22 1010.2 939.1
21 20.01 З 6-7
{8}
50 км н/о -14.5 -16.6 84 -24 -24 1010.8 939.1
23 20.01 З 6 50 км н/о -14.2 -17.8 74 -24 -24 1010.7 939.1
22 20.01 З 6 50 км н/о -14.0 -16.7 80 -23 -23 1010.7 939.2
00 21.01 СЗ 5-5
{7}
50 км н/о -15.1 -17.7 80 -24 -24 1010.9 939.0
01 21.01 СЗ 3-4
{6}
50 км н/о -13.3 -17.0 74 -20 -20 1010.5 939.1
02 21.01 СЗ 5-6
{6}
50 км н/о -10.7 -15.4 68 -19 -19 1009.6 939.0
03 21.01 СЗ 5-6
{6}
50 км н/о -12.5 -17.0 69 -21 -21 1010.0 938.9
05 21.01 СЗ 6-7
{7}
50 км н/о -12.4 -15.8 76 -21 -21 1009.8 938.7
04 21.01 СЗ 5-7
{7}
50 км н/о -14.9 -18.2 76 -24 -24 1010.5 938.8
06 21.01 СЗ 5-5
{7}
50 км н/о -13.7 -16.3 81 -22 -22 1010.1 938.7 -15.5 -10.4
07 21.01 СЗ 6 50 км н/о -13.0 -14.4 89 -22 -22 1010.2 939.0
08 21.01 СЗ 5 50 км н/о -12.7 -14.4 87 -21 -21 1010.7 939.5
09 21.01 СЗ 6-8
{10}
50 км н/о -13.8 -15.3 88 -23 -23 1010.9 939.4
11 21.01 СЗ 8 45 км н/о -13.6 -15.1 88 -24 -24 1011.0 939.5
10 21.01 СЗ 8 50 км н/о -14.2 -15.5 90 -25 -25 1011.1 939.4
12 21.01 СЗ 5-9
{10}
40 км н/о -13.3 -14.7 89 -22 -22 1011.1 939.7
13 21.01 СЗ 8 45 км н/о -13.8 -15.0 91 -24 -24 1011.1 939.6
14 21.01 СЗ 8 50 км н/о -13.6 -15.0 89 -24 -24 1010.9 939.5
15 21.01 СЗ 8-10
{12}
50 км н/о -13.4 -14.6 91 -24 -24 1010.5 939.1
17 21.01 СЗ 8 50 км в посл. час снег н/о -13.0 -14.2 91 -23 -23 1010.5 939.3
16 21.01 СЗ 8 8000 м снежные зёрна н/о -12.8 -13.9 91 -23 -23 1010.4 939.2
18 21.01 СЗ 7-9
{10}
50 км {ливн. осадки, снег} н/о -13.0 -14.2 91 -23 -23 1010.6 939.3 -14.8 -12.3
19 21.01 СЗ 7 50 км н/о -12.8 -13.9 91 -22 -22 1010.6 939.4
20 21.01 СЗ 7 50 км н/о -12.1 -13.2 91 -22 -22 1010.6 939.6
21 21.01 СЗ 7-10
{10}
50 км н/о -11.7 -12.9 91 -21 -21 1010.4 939.5
23 21.01 СЗ 7 50 км н/о -11.2 -13.5 83 -21 -21 1009.6 938.8
22 21.01 СЗ 7 50 км н/о -11.6 -13.0 89 -21 -21 1010.1 939.2
00 22.01 З 5-6
{9}
50 км н/о -11.3 -14.0 80 -19 -19 1009.1 938.3
01 22.01 З 7 50 км н/о -12.2 -14.9 80 -22 -22 1008.8 937.8
02 22.01 З 9 50 км н/о -12.7 -15.4 80 -23 -23 1008.1 937.1
03 22.01 З 10-11
{12}
50 км н/о -12.9 -15.8 79 -24 -24 1006.9 935.9
05 22.01 З 11 50 км н/о -12.4 -16.1 74 -24 -24 1005.1 934.4
04 22.01 З 12 45 км н/о -11.8 -16.4 69 -24 -24 1005.4 934.8
06 22.01 З 10-11
{14}
5000 м слаб. снег н/о -13.3 -15.2 86 -25 -25 1005.1 934.2 -13.7 -10.7
07 22.01 З 10 7000 м снежные зёрна н/о -12.4 -13.7 90 -24 -24 1004.5 933.8
08 22.01 З 9 14 км в посл. час снег н/о -12.1 -13.6 89 -23 -23 1004.4 933.8
09 22.01 СЗ 6-7
{11}
45 км {снег} н/о -11.6 -12.9 90 -20 -20 1004.9 934.4
11 22.01 СВ 9 1200 м дымка н/о -11.4 -12.4 92 -22 -22 1005.2 934.7
10 22.01 СВ 10 3200 м в посл. час снег н/о -10.6 -11.5 93 -21 -21 1004.6 934.4
12 22.01 СВ 6-8
{9}
5000 м дымка {ливн. осадки, снег} н/о -12.1 -13.3 91 -21 -21 1005.8 935.1
13 22.01 СВ 6 1100 м туман н/о -12.5 -13.7 91 -21 -21 1006.0 935.2
14 22.01 СВ 7 1100 м слаб. ливневой снег н/о -13.1 -14.3 91 -23 -23 1006.5 935.5
15 22.01 СВ 7-8
{10}
700 м слаб. снег н/о -14.4 -15.8 89 -25 -25 1007.0 935.6
17 22.01 СВ 7 600 м слаб. ливневой снег н/о -13.8 -15.1 90 -24 -24 1007.4 936.1
16 22.01 СВ 7 1100 м слаб. ливневой снег н/о -13.5 -14.7 91 -23 -23 1007.0 935.9
18 22.01 СВ 7-8
{8}
1700 м слаб. ливневой снег н/о -13.0 -14.2 91 -23 -23 1007.3 936.3 -14.5 -10.3
19 22.01 СВ 7 35 км слаб. ливневой снег н/о -12.9 -14.0 91 -23 -23 1007.3 936.3
20 22.01 СВ 6 50 км в посл. час снег н/о -12.7 -14.0 90 -22 -22 1007.6 936.6
21 22.01 СВ 8-9
{9}
28 км слаб. ливневой снег н/о -13.0 -14.3 90 -23 -23 1007.8 936.7
23 22.01 СВ 7 40 км в посл. час снег н/о -13.5 -14.8 90 -23 -23 1008.3 937.1
22 22.01 СВ 7 50 км н/о -13.0 -14.3 90 -23 -23 1008.1 937.0
00 23.01 С 7-8
{8}
50 км {ливн. осадки, снег} н/о -13.2 -14.5 90 -23 -23 1008.4 937.3
01 23.01 С 7 50 км н/о -12.5 -13.8 90 -22 -22 1008.3 937.3
02 23.01 С 7 50 км н/о -13.0 -14.3 90 -23 -23 1008.7 937.5
03 23.01 С 8-9
{10}
50 км в посл. час снег {ливн. осадки} н/о -13.6 -14.9 90 -24 -24 1009.2 937.9
05 23.01 СВ 8 45 км н/о -14.5 -15.9 89 -25 -25 1009.9 938.2
04 23.01 СВ 7 50 км н/о -13.4 -14.8 89 -23 -23 1009.4 938.1
06 23.01 СВ 9-11
{11}
300 м слаб. снег н/о -14.0 -15.3 90 -25 -25 1010.3 938.8 -14.6 -12.2
07 23.01 СВ 9 300 м слаб. снег н/о -13.0 -14.3 90 -24 -24 1010.6 939.3
08 23.01 СВ 10 1300 м слаб. снег н/о -13.2 -14.6 89 -25 -25 1011.3 939.9
09 23.01 СВ 7-8
{12}
400 м слаб. снег н/о -14.7 -16.1 89 -25 -25 1012.5 940.7
11 23.01 В 8 3800 м слаб. снег н/о -14.2 -15.7 88 -25 -25 1013.6 941.8
10 23.01 СВ 5 1500 м слаб. снег н/о -14.6 -16.1 88 -23 -23 1013.1 941.2
12 23.01 СВ 3-5
{8}
4000 м слаб. снег н/о -14.4 -15.9 88 -21 -21 1014.4 942.5
13 23.01 СВ 5 15 км слаб. снег н/о -14.8 -16.3 88 -24 -24 1015.1 943.0
14 23.01 СВ 5 6000 м слаб. снег н/о -15.8 -17.4 87 -25 -25 1016.0 943.6
15 23.01 СВ 3-4
{6}
35 км в посл. час снег {ливн. осадки} н/о -14.2 -15.5 90 -21 -21 1016.2 944.2
17 23.01 СВ 6 40 км в посл. час снег н/о -13.7 -15.1 89 -23 -23 1016.8 944.9
16 23.01 СВ 5 17 км слаб. ливневой снег н/о -14.6 -16.1 88 -23 -23 1016.7 944.6
18 23.01 СВ 7-8
{8}
50 км {ливн. осадки, снег} н/о -12.9 -14.2 90 -23 -23 1017.2 945.5 -15.9 -12.7
19 23.01 СВ 6 50 км н/о -12.9 -14.1 91 -22 -22 1017.6 945.9
20 23.01 СВ 8 500 м слаб. ливневой снег н/о -13.7 -15.0 90 -24 -24 1018.6 946.6
21 23.01 СВ 5-7
{9}
700 м слаб. снег н/о -13.8 -15.1 90 -22 -22 1019.1 947.0
23 23.01 СВ 5 14 км в посл. час снег н/о -12.8 -14.1 90 -21 -21 1019.4 947.5
22 23.01 СВ 6 700 м слаб. ливневой снег н/о -13.9 -15.3 89 -23 -23 1019.4 947.3
00 24.01 СВ 5-6
{6}
2500 м дымка {ливн. осадки, снег} н/о -13.3 -14.6 90 -22 -22 1020.0 948.0
01 24.01 СВ 5 40 км в посл. час снег н/о -13.0 -14.3 90 -21 -21 1020.1 948.1
02 24.01 С 4 26 км н/о -10.9 -11.9 92 -18 -18 1019.5 948.2
03 24.01 С 4-5
{5}
30 км {ливн. осадки, снег} н/о -10.2 -11.1 93 -17 -17 1019.5 948.4
05 24.01 С 4 35 км н/о -10.3 -11.2 93 -17 -17 1019.6 948.4
04 24.01 С 3 30 км н/о -10.7 -11.7 92 -17 -17 1019.6 948.3
06 24.01 С 4-5
{6}
40 км {ливн. осадки, снег} н/о -10.1 -11.1 92 -17 -17 1019.6 948.5 -14.2 -9.9
07 24.01 С 4 45 км н/о -10.4 -11.3 93 -17 -17 1019.7 948.5
08 24.01 СЗ 3 30 км н/о -12.0 -13.1 91 -18 -18 1020.5 948.8
09 24.01 С 5-7
{7}
45 км н/о -10.1 -11.1 92 -18 -18 1020.0 948.8

 

Местоположение метеостанции Муонио Саммалтунтури (Финляндия): широта 67.97 долгота 24.12 высота над уровнем моря 565 м.

В архиве по умолчанию представлена погода в Муонио Саммалтунтури за последнюю неделю. Архивные данные за месяц целиком и за предыдущие месяцы, начиная с января 2011 года, Вы можете получить, выбрав интересующий диапазон дат из раскрывающегося списка и нажав кнопку "Ввод!".


*Определитесь, кто Вы:
робот инопланетянин человек

Внимание! Время в таблицах - всемирное. Для получения местного времени необходимо прибавить поправку, которая равна 1 ч.

Смотрите также архив погоды в соседних городах и на ближайших метеорологических станциях:

Погода в Киттиля Ломполонвуома (Финляндия) (5 км)
Погода в Киттила Кенттарова (Финляндия) (5 км)
Погода в Киттила Маторова (Финляндия) (6 км)
Погода в Муонио Лаукукеро (Финляндия) (11 км)
Погода в Муонио Аламуонио (Финляндия) (18 км)
Погода в Киттила Левитунтури (Финляндия) (37 км)
Погода в Киттиля (Финляндия) (43 км)
Погода в Киттиля (Финляндия) (48 км)
Погода в Паркаломполо (Швеция) (60 км)
Погода в Киттила Покка (Финляндия) (72 км)

Пояснения к столбцам:

Ветер - указаны скорость ветра в м/с - средняя за 10 мин, порывы в срок и между сроками (в фигурных скобках) и направление, откуда дует ветер: С - северный, СВ - северо-восточный, В - восточный, ЮВ - юго-восточный, Ю - южный, ЮЗ - юго-западный, З - западный, СЗ - северо-западный.
Видимость - горизонтальная дальность видимости в метрах или километрах. При видимости от 1 до 10 км при отсутствии осадков обычно наблюдается дымка, при ухудшении видимости до 1 км и менее - туман. В сухую погоду видимость может ухудшаться дымом, пылью или мглою.
Явления - указаны атмосферные явления, наблюдавшиеся в срок или в последний час перед сроком; фигурными скобками обозначены явления, наблюдавшиеся между сроками (за 1-3 часа до срока); квадратными скобками обозначены град или гололедные отложения с указанием их диаметра в мм.
Облачность - указаны через наклонную черту общая и нижняя облачность в баллах и высота нижней границы облаков в метрах; квадратными скобками обозначены формы облаков: Ci - перистые, Cs - перисто-слоистые, Cc - перисто-кучевые, Ac - высококучевые, As - высокослоистые, Sc - слоисто-кучевые, Ns - слоисто-дождевые, Cu - кучевые, Cb - кучево-дождевые. Подробнее классификацию облаков см. в Атласе облаков (PDF).
T - Температура воздуха - температура, измеренная на высоте 2 м над землей.
Td - Температура точки росы - температура, при понижении до которой содержащийся в воздухе водяной пар достигнет насыщения.
f - Относительная влажность воздуха - влажноcть воздуха, измеренная на высоте 2 м над землей.
Te - Эффективная температура - температура, которую ощущает одетый по сезону человек в тени. Характеристика душности погоды. При расчете учитывается влияние влажности воздуха и скорости ветра на теплоощущения человека.
Tes - Эффективная температура на солнце - температура, которую ощущает человек, с поправкой на солнечный нагрев. Характеристика знойности погоды. Зависит от высоты солнца над горизонтом, облачности и скорости ветра. Ночью, в пасмурную погоду, а также при ветре 12 м/с и более поправка равна нулю.
P - Атмосферное давление - приведенное к уровню моря атмосферное давление.
Po - Атмосферное давление - измеренное на уровне метеостанции атмосферное давление.
Tmin - Минимальная температура - минимум температуры воздуха на высоте 2 м над землей.
Tmax - Максимальная температура - максимум температуры воздуха на высоте 2 м над землей.
R - Количество осадков - Количество выпавших осадков за период времени, мм. При наведении курсора мыши на число - период времени, за который выпало указанное количество осадков.
R24 - Количество осадков - Количество выпавших осадков за 24 часа, мм.
S - Снежный покров - Высота снежного покрова, см. При наведении курсора мыши на число - состояние снежного покрова и степень покрытия местности в баллах.